Weather History for PAOM - December, 2012

Change the Weather History Date:

Wednesday, December 19, 2012

  Actual Average Record
Temperature  
Mean Temperature -17 °F -  
Max Temperature -4 °F 16 °F 38 °F (1969)
Min Temperature -30 °F - -36 °F (1918)
Degree Days  
Heating Degree Days 82 56  
Month to date heating degree days 1294 1033  
Since 1 July heating degree days 5509 5131  
Cooling Degree Days 0    
Month to date cooling degree days 0  
Year to date cooling degree days 0  
Moisture  
Dew Point -25 °F    
Average Humidity 0    
Maximum Humidity 0    
Minimum Humidity 0    
Precipitation  
Precipitation T in 0.04 in 0.44 in (1921)
Month to date precipitation 0.42 0.66  
Year to date precipitation 18.55 16.39  
Snow  
Snow 0.20 in 0.60 in 6.30 in (2010)
Month to date snowfall 12.1 8.7  
Since 1 July snowfall 14.7 26.0  
Snow Depth 12.00 in    
Sea Level Pressure  
Sea Level Pressure 30.42 in    
Wind  
Wind Speed 2 mph (East)    
Max Wind Speed 12 mph    
Max Gust Speed 16 mph    
Visibility 10 miles    
Events Snow    
T = Trace of Precipitation, MM = Missing Value Source: NWS Daily Summary

Daily Weather History Graph

Daily Weather History Graph

Search for Another Location

Airport or City:

Trip Planner

Search our weather history database for the weather conditions in past years. The results will help you decide how hot, cold, wet, or windy it might be!

Date:

Astronomy

Dec. 19, 2012 Rise Set
Actual Time 12:02 PM AKST 3:56 PM AKST
Civil Twilight 10:39 AM AKST 5:18 PM AKST
Nautical Twilight 9:29 AM AKST 6:29 PM AKST
Astronomical Twilight 8:28 AM AKST 7:30 PM AKST
Moon 1:23 PM AKST (12/19) 1:16 AM AKST (12/19)
Length of Visible Light 6h 39m
Length of Day
3h 54m
Waxing Crescent, 46% of the Moon is Illuminated
Dec 19
Waxing Crescent
Dec 19
First Quarter
Dec 28
Full
Jan 4
Last Quarter
Jan 11
New

Hourly Weather History & Observations

Time (AKST) Temp. Windchill Dew Point Humidity Pressure Visibility Wind Dir Wind Speed Gust Speed Precip Events Conditions
12:53 AM -29.0 °F - -35.0 °F 73% 30.20 in 10.0 mi Calm Calm - N/A   Clear
1:53 AM -26.0 °F -40.2 °F -32.1 °F 73% 30.24 in 10.0 mi NNE 4.6 mph - N/A   Clear
2:53 AM -27.0 °F - -32.1 °F 77% 30.28 in 10.0 mi Calm Calm - N/A   Clear
3:53 AM -27.0 °F - -29.9 °F 86% 30.30 in 10.0 mi Calm Calm - N/A   Clear
4:53 AM -29.0 °F - -35.0 °F 73% 30.33 in 10.0 mi Calm Calm - N/A   Clear
5:53 AM -25.1 °F - -29.9 °F 78% 30.35 in 10.0 mi Calm Calm - N/A   Clear
6:53 AM -27.0 °F - -33.0 °F 73% 30.36 in 10.0 mi Calm Calm - N/A   Clear
7:53 AM -24.0 °F - -29.0 °F 77% 30.37 in 10.0 mi Calm Calm - N/A   Clear
8:53 AM -25.1 °F - -31.0 °F 74% 30.37 in 10.0 mi Calm Calm - N/A   Clear
9:53 AM -25.1 °F - -32.1 °F 70% 30.40 in 10.0 mi Calm Calm - N/A   Clear
10:53 AM -23.1 °F -34.2 °F -29.9 °F 70% 30.42 in 10.0 mi East 3.5 mph - N/A   Clear
11:53 AM -23.1 °F - -29.9 °F 70% 30.44 in 10.0 mi Calm Calm - N/A   Clear
12:53 PM -24.0 °F - -29.9 °F 74% 30.45 in 10.0 mi Calm Calm - N/A   Clear
1:53 PM -18.9 °F - -24.0 °F 78% 30.47 in 10.0 mi Calm Calm - N/A   Clear
2:53 PM -20.9 °F - -26.0 °F 77% 30.47 in 10.0 mi Calm Calm - N/A   Partly Cloudy
3:53 PM -18.0 °F - -23.1 °F 78% 30.48 in 10.0 mi Calm Calm - N/A   Partly Cloudy
4:53 PM -18.9 °F - -24.0 °F 78% 30.51 in 10.0 mi Calm Calm - N/A   Mostly Cloudy
5:53 PM -14.1 °F - -18.0 °F 82% 30.51 in 6.0 mi Calm Calm - 0.00 in Snow Light Snow
6:53 PM -14.1 °F - -18.9 °F 79% 30.51 in 9.0 mi Calm Calm - 0.00 in Snow Light Snow
7:53 PM -6.0 °F -18.6 °F -9.9 °F 83% 30.51 in 9.0 mi East 5.8 mph - 0.00 in   Mostly Cloudy
8:53 PM -7.1 °F -19.9 °F -11.0 °F 83% 30.52 in 10.0 mi East 5.8 mph - N/A   Overcast
9:53 PM -8.0 °F -23.9 °F -11.9 °F 83% 30.53 in 8.0 mi East 8.1 mph - 0.00 in Snow Light Snow
10:53 PM -7.1 °F -23.9 °F -9.9 °F 87% 30.53 in 9.0 mi East 9.2 mph - 0.00 in Snow Light Snow
11:53 PM -4.0 °F -22.1 °F -9.0 °F 79% 30.54 in 8.0 mi East 11.5 mph - 0.00 in Snow Light Snow